Location: Newark
(45.8667°N, 9.7333°E)
Time: 20:24:49
(UTC+00:00)

Vanguard 2 Rocket - Pass Details

Date: 02 February 2020
Orbit: 554 x 3327 km, 32.9° (Epoch: 22 February)

Event Time Altitude Azimuth Distance (km) Brightness Sun altitude
Rises 04:08:03 0° 241° (WSW) 2,722 - -27.1°
Reaches altitude 10° 04:11:00 10° 215° (SW) 1,839 - -26.6°
Maximum altitude 04:13:19 15° 179° (S) 1,623 - -26.2°
Exits shadow 04:13:47 15° 172° (S) 1,657 8.3 -26.1°
Drops below altitude 10° 04:15:52 10° 144° (SE) 2,067 9.1 -25.7°
Sets 04:19:33 0° 121° (ESE) 3,304 10.7 -25.1°
